Showing default

ICEYE-X61, 66754

Orbit data source: Space-Track

ICEYE-X61, 66754 is a payload satellite owned by ICEYE (FI) in SSO that was launched on Fri, 28 Nov 2025 UTC via an FALCON 9 launch vehicle from the Air Force Western Test Range (AFWTR). Payload-class satellites include a variety of spacecraft equipped with specific instruments for various scientific and technological missions. These include communications satellites like Starlink; space stations such as the ISS; scientific satellites like the Hubble; Earth observation satellites from companies like Planet Labs, Umbra, and HawkEye 360; GPS; miniature CubeSats for education and research; and military/defense satellites.

Loading next visibility...
Identifier
66754, 2025-276CS
Orbit
SSO
Country
Flag of FIFI / FIN
Related business
Manufacturer
ICEYE
Mission
Operational Commercial Radar Imaging
Bus & Motor
ICEYE, Unknown motor
Mass
120 kg wet, 120 kg dry
Launch date (UTC)
2025-11-28 (4 months ago)
Launch vehicle
FALCON 9
Launch site
Air Force Western Test Range (AFWTR)
Object type
Payload
Rocket body
Debris
Shape & HBR
Box + 1 Pan, 2.4 m
Radar Cross Section
0.776 m²

Expand to show TLE details & history
Last TLE update: 10 hours ago

TLE from 10 hours ago
0 ICEYE-X61
1 66754U 25276CS  26095.14925359  .00010731  00000-0  51093-3 0  9993
2 66754  97.4232 169.9813 0002655 203.9208 156.1904 15.19321159 19335
Epoch: 2026-04-05T03:34Z
TLE epoch observation values (Epoch: 2026-04-05T03:34:55.510Z)
Latitude
0.00002°
Longitude
-77.20882°
Altitude
512.653 km
Speed
7.607 km/s
True Right ascension
11h 19m 55s
True Declination
0° 00' 00"
Sunlit
Object was in full shadow at epoch
Visualization orbit readout
Latitude
Unknown
Longitude
Unknown
Altitude
Unknown
Speed
Unknown
Apparent Right ascension
Unknown
Apparent Declination
Unknown
Sunlit
N/A
Visualization observer readout
Local Sidereal Time
19:30:22
Azimuth
Unknown
Elevation
Unknown
Doppler factor
Unknown
Orbital elements
Apogee altitude
506.686 km
Perigee altitude
503.031 km
Semi-major axis
6,882.995 km
Eccentricity
0.00027
Inclination
97.4232°
RAAN
169.9813°
Arg. of periapsis
203.9208°
True anomaly
156.20268°
Mean anomaly
156.1904°
Eccentric anomaly
156.19654°
Mean motion
3.80082 °/min
Orbital period
94.72 mins
BSTAR
0.00051093
Loading maneuver chart data...
Computing Atmospheric mass density...
Loading historical data...
Loading historical data...
Loading historical data...
Loading historical data...
Loading historical data...
Loading historical data...
Loading historical data...

Documentation

Showing up to 5 results
|